Погода в Балтинаве

Латвия     56°56′48″N   27°38′41″E
темп.,
°C
ветер,
м/с
пор.,
м/с
влажн.,
%
обл.,
%
осадки,
мм/ч
давл.,
гПа
погр.,
м
5 марта, пт
пт523:00−3зсз26720 0.0 1009278
02:00−3з48730 0.0 1009600
05:00−2зсз5871100 0.1 1010920
08:00−3ссз7107099 0.3 10111047
11:00−3ссз684784 0.0 10121670
14:00−2ссз683881 0.1 10142171
17:00−2ссз3643100 0.1 10151632
20:00−4с235575 0.1 101789
6 марта, сб
сб623:00−5с26695 0.0 1019507
02:00−5зсз35742 0.0 1020305
05:00−6зсз37770 0.0 1021347
08:00−6зсз37760 0.0 1021392
11:00−2з46520 0.0 1021911
14:000зюз7104416 0.0 10181452
17:000зюз71454100 0.0 10141404
20:000зюз81755100 0.0 10111411
7 марта, вс
вс723:00−1зюз91763100 0.0 10051164
02:00−1зюз91594100 0.4 10011004
05:00−2сз91564100 1.9 10001550
08:00−5зсз6134782 1.9 10031848
11:00−2зсз9154517 0.0 10032221
14:00−1з9144652 0.1 10002283
17:00−2з81454100 0.0 9981690
20:00−3зсз9156598 0.4 9981263
8 марта, пн
пн823:00−6ссз8137298 0.5 10021527
02:00−8сз6106673 0.5 10061015
05:00−9сз38711 0.0 1008646
08:00−8сз48761 0.0 1010687
11:00−7ссз576794 0.1 10111125
14:00−6ссз576197 0.1 10131345
17:00−7с6966100 0.1 10151157
20:00−9с61073100 0.1 1018861
9 марта, вт
вт923:00−10с497458 0.0 1021660
02:00−10ссз377729 0.0 1022401
05:00−11сз36840 0.0 1023224
08:00−10сз34800 0.0 1025190
11:00−5зсз35560 0.0 1025592
14:00−2з46440 0.0 10251013
17:00−2з38521 0.0 1024420
20:00−4з4106440 0.0 1025412